Wind_Speed
22 15 19 22 24 22 21 21 20 17 18 22 24 24 23 23 23 26 27 29 31 31 32 35 36 37 40 41 42 41 38 41 42 44 43 46 47 45 38 40 42 43 33 34 39 40 40 35 29
27 23 24 21 21 24 24 24 25 22 21 20 23 27 29 27 28 29 31 34 37 38 36 37 38 40 44 43 44 44 44 44 44 46 44 45 48 46 45 43 42 47 38 33 40 38 39 39 33
29 27 21 20 22 23 24 26 27 28 26 22 23 25 28 31 37 36 36 38 42 41 40 41 39 43 46 48 48 47 46 47 45 47 44 44 48 50 46 42 46 47 43 34 37 38 36 38 38
33 29 22 21 24 26 28 27 28 30 30 27 24 29 30 34 33 35 39 41 46 45 43 42 42 47 48 52 53 48 50 48 49 51 47 45 48 50 46 44 48 46 48 36 32 37 35 36 36
39 35 30 29 27 28 29 30 29 32 34 32 31 35 36 38 41 43 45 44 47 47 46 44 46 48 53 54 51 50 50 51 52 51 49 47 47 50 50 47 49 48 49 42 33 34 35 34 35
38 37 34 31 34 36 34 34 34 34 36 38 38 39 38 39 40 42 43 45 44 46 45 42 45 48 56 55 52 51 53 54 52 51 51 48 49 50 50 48 50 50 46 46 33 34 31 31 34
39 38 37 35 34 34 34 34 33 36 39 41 43 44 44 41 40 43 44 45 47 47 45 46 50 56 56 54 54 55 57 56 52 54 53 53 54 52 50 49 53 54 47 45 37 35 31 29 31
41 40 40 38 38 37 35 34 34 35 38 39 41 44 45 44 44 45 46 47 48 49 52 53 56 55 53 53 55 59 59 55 55 55 57 58 56 52 51 51 56 57 46 46 38 35 33 30 29
41 42 37 37 36 40 40 39 38 38 36 37 38 40 42 46 50 49 51 52 55 55 55 56 58 56 57 59 61 58 58 58 60 60 63 59 56 53 50 52 59 58 47 42 39 39 33 34 29
41 42 41 41 37 36 36 39 41 41 39 37 40 43 49 50 50 50 53 56 54 55 56 57 58 60 62 64 59 59 62 62 62 61 59 57 55 54 54 56 57 50 47 44 44 44 38 37 34
41 38 42 43 38 35 36 36 37 39 39 40 43 43 46 48 49 50 53 58 59 57 59 58 63 64 64 63 61 63 65 61 61 64 61 59 54 54 55 55 50 48 50 50 48 46 45 37 35
42 48 50 48 48 47 45 46 45 50 50 47 42 47 51 50 52 55 55 59 62 65 64 65 68 69 70 68 64 66 68 70 68 71 66 57 57 57 59 56 52 49 50 46 49 47 47 41 41
53 52 54 52 50 51 54 57 59 58 54 54 54 59 53 54 59 61 64 63 65 66 66 68 70 68 65 65 67 66 69 72 73 77 68 60 58 58 61 61 56 49 51 52 50 49 47 45 44
55 55 58 62 61 60 62 63 61 62 63 65 67 66 63 67 64 66 67 67 69 69 70 73 70 64 64 67 67 66 73 75 78 68 62 62 62 53 51 53 55 54 53 56 52 50 48 49 46
65 63 62 62 64 63 63 64 64 66 66 68 70 70 69 71 71 72 74 76 76 75 75 72 68 69 71 75 64 75 77 73 64 57 60 55 48 51 52 54 53 54 53 57 54 51 51 50 51
65 65 66 67 65 66 68 67 70 69 68 70 71 69 71 72 71 72 74 76 74 73 73 72 72 71 72 76 75 76 75 55 55 64 50 54 56 58 56 54 52 57 55 60 62 55 54 55 54
72 69 67 68 71 72 68 68 69 66 67 68 68 67 65 69 69 69 72 74 74 72 72 71 70 70 76 74 70 69 69 61 64 59 52 56 61 60 55 61 62 60 62 58 56 53 54 56 56
71 69 71 72 73 71 66 64 65 65 64 67 68 67 68 70 71 74 77 78 79 80 81 80 78 75 75 79 57 58 46 35 50 48 66 60 59 63 68 63 63 64 56 57 55 58 57 55 57
71 70 67 67 64 61 66 63 63 62 62 64 67 71 74 78 80 81 82 85 87 88 89 87 85 84 81 56 54 60 60 54 57 65 64 69 66 54 58 60 54 57 60 61 62 60 59 59 59
75 73 71 69 64 60 62 61 65 66 67 67 70 74 78 82 85 87 89 91 93 95 94 90 87 79 72 42 50 55 60 56 55 60 58 61 52 51 56 62 60 59 60 61 61 62 61 64 63
75 72 74 70 70 71 67 66 70 73 74 76 78 80 84 88 89 89 91 93 94 93 92 89 84 77 63 42 50 55 56 57 54 58 63 59 62 50 60 64 64 61 61 62 63 64 70 71 69
73 75 74 75 73 72 69 68 72 77 79 81 84 87 90 93 96 98 97 96 94 94 92 87 80 72 54 33 48 56 62 60 60 66 68 68 63 62 63 69 73 74 71 73 75 76 70 69 76
74 75 74 72 71 68 68 70 68 79 82 83 86 90 92 95 96 96 94 95 97 88 78 74 71 68 66 62 56 61 58 64 71 70 69 70 69 76 83 85 83 74 76 83 81 77 77 70 68
77 74 74 73 72 71 74 78 74 81 85 88 91 93 94 94 94 96 95 93 87 77 73 73 71 69 70 66 66 65 66 65 66 70 71 76 77 82 84 90 92 90 89 90 89 93 91 89 86
84 84 82 78 78 76 79 82 81 83 86 90 94 95 96 98 96 95 93 83 74 73 73 71 73 73 71 69 70 71 70 70 72 75 76 78 83 86 90 93 95 98 99 100 102 101 99 95 96
85 86 83 81 82 83 84 84 85 85 88 92 97 98 98 97 97 97 87 77 72 71 74 75 74 72 74 75 74 74 74 74 73 74 76 78 81 80 81 87 94 99 103 106 107 106 102 98 97
82 81 84 87 89 87 87 86 87 90 96 99 100 100 101 100 103 91 78 76 75 73 75 76 77 77 78 80 82 82 81 81 82 81 82 83 86 87 88 91 91 92 96 99 103 105 105 102 101
84 87 90 91 91 93 92 93 94 96 98 98 101 103 101 100 91 79 79 80 76 76 77 77 79 81 83 84 84 84 84 86 87 88 90 91 93 94 95 94 96 96 95 94 100 104 105 104 105
86 88 92 95 95 98 100 98 98 100 101 103 103 100 100 90 82 79 81 81 83 83 81 83 84 85 86 88 89 90 89 90 93 95 96 98 100 99 97 97 96 94 92 92 95 101 105 107 107
91 93 96 98 101 104 108 101 103 104 104 104 106 103 96 85 81 83 85 88 87 88 90 91 92 93 95 95 94 95 97 97 99 101 101 102 102 101 99 95 93 90 90 92 94 96 99 102 104
Wind_Direction
294 282 296 296 296 296 295 292 299 293 297 288 291 293 294 298 300 307 306 297 299 302 311 313 325 330 335 336 340 336 325 325 334 339 341 342 338 341 338 348 353 354 341 343 341 337 338 335 332
297 291 291 300 291 291 290 292 295 294 294 295 290 293 294 290 293 294 304 295 295 297 301 303 313 323 327 329 335 336 334 330 331 336 336 336 337 338 331 334 351 346 345 338 340 339 338 340 335
291 289 285 294 293 282 282 283 289 292 293 293 291 290 298 289 290 289 296 293 296 298 299 305 305 315 322 326 329 331 332 332 331 332 330 331 331 333 327 328 340 343 344 340 341 340 334 337 338
286 289 287 280 283 278 274 271 279 283 285 286 289 286 289 287 287 284 290 290 295 301 300 303 302 313 317 323 328 328 330 331 329 329 329 328 328 328 326 322 332 335 337 340 336 339 334 331 337
288 288 284 281 277 282 278 273 276 281 285 286 289 289 294 293 294 290 293 293 295 299 299 300 301 308 315 320 323 325 326 328 326 326 325 325 326 325 326 318 326 330 332 332 332 340 334 328 332
286 288 286 283 281 286 282 280 280 281 285 291 291 294 299 295 295 295 294 296 296 297 298 297 302 306 312 320 321 322 326 325 321 322 322 322 321 320 320 313 318 323 327 329 328 335 332 330 327
283 286 285 281 279 282 285 287 290 285 280 284 292 294 296 294 293 296 295 294 295 297 299 304 305 308 313 317 318 320 322 319 318 319 317 319 318 316 315 311 312 319 320 325 324 330 330 329 324
278 279 282 286 284 282 280 284 285 286 285 286 289 291 292 297 301 303 302 301 299 299 302 303 305 309 312 312 313 316 316 314 313 315 316 312 312 314 314 308 308 314 317 319 317 322 329 328 328
276 279 284 294 291 284 281 279 282 282 284 290 289 287 291 294 298 298 298 296 298 301 301 302 305 307 307 310 311 311 310 309 311 312 310 310 312 309 312 305 307 310 312 311 309 317 318 324 320
278 279 281 293 297 291 287 285 284 284 284 284 280 291 298 298 294 295 298 299 299 301 301 302 305 304 306 308 308 307 308 308 309 309 310 311 307 305 301 303 303 305 308 311 312 311 314 317 321
280 285 283 284 286 289 287 287 289 282 285 290 289 294 295 294 291 296 302 299 298 298 297 299 305 306 307 305 304 306 305 306 308 311 311 312 303 299 297 299 298 302 303 305 305 305 307 305 317
277 277 280 286 288 291 290 288 288 290 290 286 282 290 292 290 290 298 297 297 298 299 300 300 303 304 305 303 300 301 302 304 308 311 312 303 296 293 294 292 296 298 301 301 302 301 301 299 301
268 274 280 286 289 289 295 294 293 294 292 289 289 292 292 291 289 292 294 294 295 295 295 298 303 305 302 298 302 305 303 306 306 310 307 301 295 294 292 294 295 298 302 301 299 296 296 294 295
271 277 278 282 286 289 288 291 291 291 289 288 289 289 290 294 287 287 289 291 292 291 293 295 299 300 299 300 303 300 302 304 307 307 306 303 301 296 294 292 290 293 297 298 295 296 293 291 287
274 277 279 281 284 285 286 290 290 289 289 287 289 291 289 289 287 286 288 291 294 296 296 296 296 297 297 298 296 299 303 300 304 307 306 304 294 296 289 285 285 284 291 294 291 291 289 289 290
272 275 277 278 280 280 283 287 286 287 285 287 288 287 286 287 285 286 288 289 289 290 290 290 292 295 297 300 302 301 298 298 297 297 297 290 290 288 289 287 282 285 292 292 292 291 284 282 284
275 277 277 277 278 281 286 285 285 283 284 285 282 281 283 284 285 287 287 290 290 292 292 293 296 297 301 305 306 298 294 293 296 292 286 286 287 291 289 287 285 284 291 284 286 285 280 280 281
270 270 274 277 279 285 285 283 282 282 281 279 278 280 285 287 288 289 290 291 293 294 294 295 296 299 299 303 297 291 284 297 279 286 283 284 286 285 289 290 285 286 282 279 278 278 275 276 278
271 273 276 275 279 281 279 279 277 276 277 283 286 288 289 290 292 291 292 294 296 297 297 298 298 298 298 299 284 284 281 279 270 273 285 281 285 286 292 291 287 287 281 278 278 273 270 273 275
269 273 277 278 280 277 275 275 278 281 283 285 286 288 290 292 292 292 294 295 296 296 297 298 300 300 302 287 288 285 285 286 278 275 270 280 284 285 283 280 281 280 275 281 277 278 273 276 273
275 278 278 280 279 278 277 278 283 283 285 286 288 289 290 291 292 294 295 296 298 300 301 300 301 301 297 279 282 284 282 282 274 270 272 265 272 277 276 278 281 280 275 272 271 271 278 282 282
275 275 277 278 278 278 278 277 281 283 284 286 288 289 289 292 293 295 297 299 301 303 305 305 304 301 292 266 267 269 274 271 273 274 272 270 263 262 264 269 272 275 273 273 273 276 280 276 283
272 273 273 273 275 276 278 278 280 285 287 289 289 290 293 294 296 297 300 304 305 305 301 298 295 293 291 290 278 280 276 276 280 276 270 269 266 261 270 268 267 266 267 271 271 274 279 275 270
273 274 274 274 275 276 279 279 284 287 290 292 293 294 297 298 299 301 303 306 305 298 290 290 289 288 287 285 284 282 280 278 273 269 274 266 266 269 271 269 269 267 268 270 269 269 271 271 271
272 273 275 278 279 279 278 281 285 286 289 291 293 295 297 299 304 303 307 305 298 290 288 289 288 289 286 284 283 280 279 277 275 270 271 266 268 266 266 267 267 268 268 268 269 270 270 269 269
272 273 277 279 278 279 281 283 284 286 288 289 292 295 299 300 300 302 303 301 296 289 286 286 288 288 288 289 288 287 285 282 280 277 274 272 271 274 271 271 271 269 267 268 269 269 271 271 270
272 276 276 277 277 279 280 282 285 286 287 291 295 297 297 300 303 300 297 296 295 291 288 289 287 286 285 286 287 286 285 285 284 282 282 283 283 283 282 281 279 273 271 268 267 268 269 269 271
272 274 277 279 281 280 282 282 285 287 290 292 295 296 300 302 299 294 294 294 293 292 291 289 289 289 288 287 286 285 285 285 285 285 285 286 286 286 286 284 282 279 275 266 264 266 267 268 269
274 275 277 280 282 284 283 284 288 291 291 292 295 298 300 298 295 294 293 293 293 291 289 288 290 290 290 289 289 288 287 286 285 285 286 287 288 287 285 284 281 278 274 269 265 262 262 263 263
275 277 278 280 283 285 286 289 289 290 292 294 294 295 296 293 291 292 293 293 293 293 294 294 292 292 291 290 288 287 286 285 286 286 286 286 287 285 285 282 279 276 273 272 269 267 265 265 266
Height
10924 10926 10925 10923 10922 10921 10920 10919 10918 10918 10917 10915 10914 10914 10912 10910 10908 10905 10902 10899 10898 10898 10896 10892 10890 10887 10885 10882 10879 10875 10872 10869 10865 10861 10858 10854 10850 10846 10842 10839 10834 10829 10824 10819 10814 10807 10803 10799 10795
10919 10922 10923 10921 10919 10917 10915 10915 10914 10914 10914 10912 10910 10909 10908 10907 10904 10900 10897 10894 10892 10890 10889 10887 10885 10883 10880 10877 10874 10872 10869 10864 10861 10857 10854 10849 10846 10843 10839 10836 10831 10826 10821 10815 10811 10805 10800 10796 10793
10914 10916 10919 10919 10916 10913 10912 10911 10910 10910 10910 10909 10906 10905 10903 10901 10899 10896 10891 10888 10886 10885 10884 10881 10880 10878 10875 10872 10869 10866 10863 10859 10856 10853 10849 10845 10841 10839 10835 10831 10828 10824 10819 10813 10807 10803 10796 10791 10789
10908 10911 10914 10914 10913 10910 10908 10908 10905 10904 10904 10904 10902 10900 10897 10895 10893 10890 10888 10883 10881 10880 10879 10876 10873 10871 10868 10866 10864 10859 10855 10852 10849 10846 10843 10839 10835 10831 10829 10826 10823 10820 10816 10810 10803 10800 10794 10789 10785
10901 10903 10907 10908 10908 10907 10905 10904 10903 10900 10899 10898 10897 10896 10894 10890 10887 10885 10883 10882 10877 10875 10872 10870 10867 10864 10861 10860 10857 10853 10849 10845 10841 10838 10835 10832 10829 10824 10822 10819 10817 10815 10813 10808 10801 10794 10791 10786 10781
10895 10896 10899 10902 10901 10901 10900 10900 10900 10897 10894 10892 10890 10888 10887 10885 10881 10877 10874 10873 10870 10869 10867 10864 10861 10858 10855 10852 10849 10845 10842 10838 10834 10830 10826 10823 10821 10818 10814 10811 10809 10807 10806 10804 10798 10792 10786 10783 10777
10889 10889 10891 10894 10894 10894 10894 10894 10893 10892 10889 10888 10883 10880 10878 10875 10873 10872 10869 10867 10864 10861 10859 10857 10854 10851 10847 10843 10840 10837 10834 10831 10827 10823 10819 10816 10813 10810 10807 10803 10801 10798 10796 10796 10793 10790 10783 10778 10774
10884 10882 10882 10884 10886 10886 10887 10887 10886 10885 10884 10883 10879 10874 10871 10868 10866 10864 10862 10860 10857 10854 10852 10848 10844 10841 10839 10836 10833 10829 10826 10822 10819 10815 10811 10806 10803 10800 10799 10795 10791 10790 10787 10785 10784 10783 10780 10776 10771
10877 10876 10876 10876 10876 10877 10880 10881 10878 10878 10879 10879 10875 10870 10865 10862 10860 10858 10854 10851 10849 10847 10844 10840 10836 10833 10830 10828 10824 10821 10817 10813 10809 10806 10801 10796 10792 10789 10787 10785 10781 10780 10778 10775 10775 10774 10772 10771 10767
10869 10868 10868 10868 10867 10869 10871 10873 10873 10869 10871 10873 10869 10865 10861 10857 10853 10850 10847 10844 10842 10840 10837 10834 10831 10827 10824 10820 10816 10811 10807 10803 10800 10797 10792 10787 10783 10780 10779 10776 10772 10770 10768 10767 10766 10766 10765 10763 10761
10861 10860 10860 10860 10859 10861 10863 10863 10865 10862 10863 10865 10863 10858 10854 10851 10846 10845 10841 10836 10834 10832 10830 10829 10826 10821 10816 10811 10807 10801 10797 10793 10789 10786 10782 10777 10774 10772 10769 10767 10763 10760 10759 10757 10756 10755 10755 10755 10753
10854 10852 10852 10853 10854 10856 10857 10856 10857 10854 10853 10854 10854 10851 10845 10843 10839 10836 10832 10829 10826 10823 10821 10820 10818 10814 10806 10800 10795 10792 10788 10782 10778 10774 10770 10766 10764 10762 10759 10756 10753 10750 10748 10747 10746 10745 10744 10743 10743
10844 10844 10845 10845 10847 10849 10849 10848 10848 10845 10843 10840 10841 10840 10837 10833 10830 10825 10820 10818 10815 10813 10812 10811 10809 10805 10796 10790 10786 10781 10776 10772 10767 10764 10759 10754 10751 10750 10747 10745 10742 10739 10738 10737 10735 10735 10734 10733 10731
10835 10834 10837 10834 10836 10841 10841 10838 10838 10837 10831 10828 10828 10827 10826 10822 10819 10813 10808 10806 10803 10800 10800 10801 10800 10797 10789 10783 10777 10770 10767 10760 10755 10750 10744 10740 10737 10735 10733 10732 10730 10729 10727 10726 10724 10723 10723 10722 10721
10826 10826 10826 10824 10826 10829 10829 10829 10826 10825 10823 10816 10814 10815 10812 10809 10805 10800 10796 10793 10792 10790 10788 10787 10787 10787 10780 10777 10772 10762 10757 10750 10744 10740 10735 10726 10721 10722 10720 10718 10716 10715 10714 10713 10713 10712 10711 10711 10710
10813 10817 10815 10814 10814 10815 10818 10822 10813 10813 10812 10806 10802 10799 10796 10795 10792 10787 10782 10778 10776 10776 10775 10774 10776 10773 10767 10760 10758 10751 10744 10741 10736 10730 10725 10715 10711 10708 10707 10705 10703 10702 10701 10701 10701 10701 10698 10697 10697
10801 10805 10805 10801 10798 10799 10807 10808 10802 10800 10800 10796 10792 10788 10783 10780 10780 10774 10769 10765 10762 10762 10759 10759 10763 10761 10755 10745 10739 10733 10730 10729 10726 10719 10710 10704 10698 10695 10693 10692 10690 10688 10688 10687 10688 10688 10687 10684 10684
10789 10789 10789 10787 10786 10792 10791 10793 10789 10787 10787 10781 10779 10775 10769 10764 10763 10760 10755 10750 10746 10744 10742 10744 10746 10749 10744 10733 10723 10719 10718 10725 10710 10694 10700 10692 10687 10684 10681 10676 10674 10673 10672 10673 10675 10674 10674 10671 10670
10773 10774 10773 10770 10775 10781 10778 10779 10774 10775 10773 10769 10765 10760 10755 10751 10747 10745 10740 10734 10731 10727 10725 10726 10729 10730 10728 10720 10710 10705 10702 10707 10707 10697 10689 10684 10678 10672 10667 10661 10658 10656 10655 10657 10658 10659 10659 10659 10658
10758 10758 10756 10758 10763 10769 10766 10766 10762 10760 10759 10757 10752 10747 10741 10736 10733 10730 10726 10720 10715 10711 10707 10705 10708 10710 10711 10703 10695 10688 10686 10684 10682 10680 10670 10666 10663 10658 10651 10648 10643 10640 10637 10638 10639 10641 10644 10644 10644
10742 10742 10740 10747 10749 10752 10756 10755 10746 10744 10743 10741 10736 10731 10725 10721 10716 10712 10708 10704 10698 10693 10689 10686 10683 10687 10688 10686 10678 10672 10669 10667 10662 10661 10658 10652 10649 10645 10637 10633 10630 10627 10623 10622 10621 10623 10625 10626 10627
10726 10724 10729 10730 10733 10737 10742 10744 10733 10727 10725 10724 10720 10714 10709 10704 10698 10694 10690 10685 10678 10673 10666 10663 10660 10662 10664 10664 10657 10654 10652 10650 10647 10644 10640 10639 10637 10630 10622 10618 10615 10614 10610 10607 10603 10605 10604 10605 10608
10708 10710 10712 10712 10718 10725 10723 10724 10727 10708 10709 10708 10701 10696 10693 10688 10683 10677 10671 10666 10659 10652 10648 10644 10640 10638 10636 10640 10641 10636 10635 10635 10631 10627 10624 10622 10621 10612 10607 10602 10599 10596 10591 10588 10588 10587 10586 10585 10586
10692 10694 10694 10696 10701 10712 10705 10702 10715 10702 10692 10687 10681 10678 10675 10670 10665 10661 10654 10647 10640 10635 10630 10626 10624 10623 10622 10620 10618 10615 10614 10613 10610 10606 10606 10603 10601 10598 10592 10586 10582 10579 10574 10571 10569 10567 10569 10569 10568
10677 10676 10677 10680 10685 10691 10690 10687 10693 10686 10679 10670 10665 10661 10655 10651 10647 10642 10636 10631 10626 10621 10616 10610 10606 10603 10602 10601 10599 10596 10594 10592 10589 10586 10583 10581 10578 10576 10572 10566 10562 10559 10554 10550 10548 10544 10544 10543 10544
10660 10663 10662 10660 10664 10670 10672 10675 10672 10667 10661 10653 10649 10644 10639 10634 10630 10625 10619 10613 10608 10603 10599 10595 10591 10586 10582 10580 10578 10575 10572 10568 10566 10565 10561 10557 10554 10551 10547 10544 10538 10534 10530 10528 10523 10521 10517 10517 10517
10648 10649 10639 10640 10644 10648 10652 10655 10654 10650 10639 10637 10633 10627 10620 10616 10610 10605 10599 10595 10591 10587 10583 10579 10574 10569 10565 10560 10556 10552 10549 10546 10542 10539 10536 10531 10527 10523 10518 10513 10511 10507 10502 10497 10495 10493 10490 10489 10488
10629 10625 10623 10623 10622 10622 10631 10635 10634 10630 10623 10619 10613 10606 10602 10596 10589 10585 10580 10576 10573 10569 10563 10557 10553 10549 10545 10540 10534 10528 10524 10519 10515 10511 10507 10503 10499 10493 10487 10480 10476 10471 10469 10467 10465 10464 10462 10461 10460
10610 10609 10603 10599 10604 10600 10603 10615 10618 10610 10604 10599 10591 10586 10582 10576 10573 10569 10562 10556 10552 10548 10544 10536 10531 10526 10519 10513 10508 10502 10498 10493 10488 10483 10479 10473 10468 10462 10455 10448 10442 10439 10436 10435 10435 10433 10432 10433 10432
10588 10588 10580 10577 10580 10579 10579 10601 10594 10587 10582 10577 10572 10569 10562 10558 10556 10551 10546 10539 10532 10522 10515 10512 10506 10500 10493 10487 10483 10478 10472 10467 10461 10455 10450 10444 10438 10430 10423 10416 10411 10409 10407 10406 10404 10402 10402 10402 10401